Laramie Regional Airport
KLAR : now visible

Airfield :











YOU CAN JOIN US ON...

 
LOGIN :

Register | Disclaimer

   EN    FR    IT 

 









Legend :    VFR   Marginal VFR   IFR   Intensive IFR   Very Intensive IFR
Visi :
Ceiling :
>= 8 km
>= 3000ft
5 to 8 km
1000 to 3000 ft
1500m to 5 km
500 to 1000 ft
800 to 1500m
200 to 500 ft
< 800m
< 200 ft
Symbols :   Thunderstorms  Fog  Heavy snow  Heavy precipitations  Wind > 20 kt







- Airport Elevation : 7284 ft
- IATA code : LAR


KLAR - Laramie Regional

CURRENT METAR :
  • 162153Z AUTO 23008KT 10SM OVC100 23/M02 A3008 RMK AO2 SLP079 T02331017 $

EXPIRED METARs :
  • 162053Z AUTO 31010KT 10SM OVC100 24/M01 A3009 RMK AO2 SLP079 T02391011 56010 $
  • 161953Z AUTO 20010KT 10SM BKN110 24/M02 A3010 RMK AO2 SLP082 T02391022 $

TAF KLAR
Valid from the 16 at 18:00 until the 17 at 18:00 UTC


161720Z 1618/1718 26006KT P6SM SCT120
FM170200 21009KT P6SM BKN100
FM171500 24025G35KT P6SM SKC
No reported NOTAMs for that airfield.



MET'MAP, your aeronautical weather chart ! - Copyright ORBIFLY December 2007 - Disclaimer

ORBIFLY MET'MAP TEAM :

Programming & Development : Alexandra Zaïnal
Concept & Development : Baudouin d'Aumeries
Co-Development & Prog : Marc-Olivier Méhu
Technical & hardware support : Manuel Goepfert

Contact : metmap@orbifly.com




SOURCES & CREDITS :

   NOAA       Earth
Advisory